[[{"header":{"parameterUnit":"m.s-1","parameterCategory":1,"la1":30.2991,"la2":30.254,"lo1":-89.0895,"lo2":-89.0444,"dy":0.0017,"dx":0.0017,"nx":28,"ny":28,"refTime":"2023-08-28T21:00:00:Z","depth":0,"parameterNumber":2,"parameterNumberName":"U-component_of_WINDS"},"data":[0,0,0,0,0,0,0,0,0,0,0,0,0,0,0,0,0,0,0,0,0,0,0,0,0,0,0,0,0,0,0,0,0,0,0,0,0,0,0,0,0,0,0,0,0,0,0,0,0,0,0,0,0,0,0,0,0,0,-1.6932,-1.6933,0,-1.7016,-1.7016,-1.7017,-1.7052,-1.7052,-1.7051,-1.7051,-1.7138,-1.714,-1.7143,0,0,0,0,0,0,0,0,0,0,0,0,0,-1.6805,-1.6807,-1.6932,-1.6933,-1.6934,-1.7015,-1.7017,-1.7018,-1.7052,-1.7052,-1.7051,-1.7051,-1.7137,-1.714,-1.7143,0,0,0,0,0,0,0,0,0,0,0,0,0,-1.6871,-1.6807,-1.6931,-1.6961,-1.6964,-1.7015,-1.7017,-1.7018,-1.7052,-1.7052,-1.7051,-1.7051,-1.7136,-1.714,-1.7143,-1.7172,0,0,-1.7155,-1.7156,0,0,0,0,0,0,0,0,-1.6867,-1.6876,-1.6955,-1.6959,-1.6963,-1.7023,-1.7004,-1.707,-1.7052,-1.7019,-1.7051,-1.7051,-1.71,-1.7107,-1.7123,-1.7176,-1.718,-1.7155,-1.7157,-1.7159,-1.716,0,0,0,0,0,0,0,-1.6863,-1.6872,-1.6965,-1.6956,-1.6961,-1.6971,-1.698,-1.7016,-1.706,-1.7021,-1.7024,-1.7034,-1.7102,-1.7119,-1.7125,-1.7181,-1.7155,-1.7158,-1.7161,-1.7162,-1.7266,-1.7266,0,0,0,0,0,0,-1.6853,-1.6868,-1.6962,-1.6967,-1.6913,-1.6973,-1.6983,-1.7004,-1.7059,-1.7068,-1.7034,-1.7035,-1.7113,-1.7121,-1.7128,-1.7167,-1.7159,-1.7162,-1.7164,-1.7265,-1.7266,-1.7266,0,0,0,0,0,0,-1.685,-1.6861,-1.6959,-1.6919,-1.6932,-1.6976,-1.6998,-1.7006,-1.7023,-1.7069,-1.7077,-1.7043,-1.7113,-1.7123,-1.7162,-1.7171,-1.7164,-1.7167,-1.7265,-1.7265,-1.7266,-1.7244,0,0,0,0,0,0,-1.6846,-1.686,-1.687,-1.6919,-1.6934,-1.6989,-1.6999,-1.7007,-1.7029,-1.7032,-1.708,-1.7088,-1.7114,-1.7156,-1.7165,-1.7176,-1.717,-1.7264,-1.7265,-1.7266,-1.7244,-1.7244,-1.7244,0,0,0,0,0,-1.6842,-1.686,-1.687,-1.6881,-1.6947,-1.699,-1.6998,-1.7028,-1.703,-1.7041,-1.7071,-1.7086,-1.7169,-1.716,-1.717,-1.7182,-1.7263,-1.7265,-1.7266,-1.7244,-1.7244,-1.7244,0,0,0,0,0,0,-1.681,-1.6866,-1.6879,-1.6913,-1.6946,-1.6995,-1.701,-1.7026,-1.706,-1.7061,-1.7096,-1.7107,-1.7143,-1.7167,-1.7156,-1.7215,-1.7217,-1.7221,-1.7197,-1.7198,-1.7197,-1.7191,-1.7173,0,0,0,0,0,-1.6807,-1.6836,-1.6884,-1.691,-1.6926,-1.6965,-1.6985,-1.7005,-1.7041,-1.7056,-1.7088,-1.7123,-1.7158,-1.7179,-1.7213,-1.7249,-1.7261,-1.7263,-1.7263,-1.7262,-1.7264,-1.7288,-1.729,-1.727,-1.727,-1.727,0,0,-1.6801,-1.6836,-1.6851,-1.6905,-1.6933,-1.6963,-1.6977,-1.7008,-1.7031,-1.706,-1.7099,-1.7125,-1.7167,-1.7204,-1.7223,-1.7225,-1.7273,-1.7264,-1.7263,-1.7266,-1.7289,-1.7291,-1.7293,-1.7271,-1.7271,-1.7271,0,0,-1.6806,-1.6834,-1.686,-1.6889,-1.6932,-1.6959,-1.6965,-1.7013,-1.7031,-1.707,-1.7094,-1.7123,-1.7181,-1.721,-1.7233,-1.7254,-1.7269,-1.7264,-1.7263,-1.7285,-1.7287,-1.7289,-1.7297,-1.73,-1.7266,-1.7266,-1.7266,0,-1.6793,-1.6839,-1.6871,-1.6902,-1.6925,-1.6954,-1.6982,-1.7008,-1.706,-1.7077,-1.7079,-1.7155,-1.7185,-1.7231,-1.7237,-1.7254,-1.7263,-1.7258,-1.7284,-1.7286,-1.7288,-1.7297,-1.73,-1.7266,-1.7266,-1.7266,-1.7266,0,-1.6822,-1.6853,-1.6869,-1.6919,-1.6945,-1.6974,-1.7012,-1.7035,-1.7054,-1.7081,-1.7123,-1.7161,-1.7204,-1.7217,-1.7236,-1.7268,-1.7268,-1.7277,-1.728,-1.7288,-1.7297,-1.7301,-1.7264,-1.7265,-1.7265,-1.7265,0,0,-1.6805,-1.6876,-1.6881,-1.6906,-1.6957,-1.6983,-1.7015,-1.7058,-1.7077,-1.7114,-1.7142,-1.7192,-1.7202,-1.7228,-1.7251,-1.727,-1.7287,-1.7277,-1.7279,-1.7278,-1.7327,-1.7319,-1.7323,-1.7299,-1.7299,-1.73,-1.7324,0,-1.6817,-1.6874,-1.6906,-1.695,-1.6981,-1.7012,-1.704,-1.7075,-1.7103,-1.7135,-1.7165,-1.7201,-1.721,-1.7226,-1.7247,-1.728,-1.7297,-1.7279,-1.7326,-1.7328,-1.7314,-1.7327,-1.7319,-1.7339,-1.7327,-1.7328,-1.7328,0,-1.6837,-1.6874,-1.6921,-1.6973,-1.6987,-1.7011,-1.7055,-1.7084,-1.7127,-1.7146,-1.7177,-1.72,-1.7237,-1.7239,-1.7292,-1.7279,-1.7301,-1.7321,-1.7322,-1.7327,-1.7327,-1.7332,-1.7346,-1.7349,-1.7334,-1.7333,-1.7333,0,-1.6822,-1.6883,-1.692,-1.694,-1.7,-1.7017,-1.7044,-1.7086,-1.7111,-1.715,-1.7167,-1.7209,-1.7233,-1.7266,-1.7302,-1.73,-1.7352,-1.7356,-1.7369,-1.7368,-1.7377,-1.7376,-1.7394,-1.7392,-1.7392,-1.7392,-1.7392,0,-1.6832,-1.6859,-1.6914,-1.6937,-1.697,-1.7008,-1.7041,-1.7069,-1.7108,-1.7138,-1.7168,-1.7195,-1.7241,-1.7275,-1.7304,-1.7344,-1.7354,-1.7371,-1.7379,-1.7368,-1.7366,-1.7382,-1.7382,-1.7393,-1.7393,-1.7392,-1.7392,0,-1.6819,-1.6857,-1.6899,-1.6954,-1.6968,-1.6991,-1.7038,-1.7063,-1.7093,-1.7131,-1.7142,-1.719,-1.7233,-1.7272,-1.7328,-1.7347,-1.7388,-1.7398,-1.7374,-1.7377,-1.7389,-1.7387,-1.7418,-1.7424,-1.7417,-1.7417,-1.7417,0,-1.6822,-1.6845,-1.6902,-1.6925,-1.695,-1.6986,-1.7012,-1.7052,-1.7078,-1.7131,-1.7149,-1.7194,-1.7231,-1.7298,-1.7339,-1.7383,-1.7394,-1.7402,-1.74,-1.739,-1.7394,-1.7392,-1.7396,-1.74,-1.74,-1.74,-1.74,0,-1.6824,-1.6843,-1.6879,-1.6922,-1.6953,-1.6989,-1.7026,-1.7043,-1.7091,-1.7119,-1.7163,-1.7193,-1.7252,-1.7296,-1.7346,-1.7375,-1.7396,-1.7401,-1.7406,-1.7396,-1.7381,-1.739,-1.7372,-1.7399,-1.7399,-1.7399,-1.7399,-1.7399,-1.682,-1.6843,-1.6887,-1.6928,-1.696,-1.6995,-1.7022,-1.7056,-1.7093,-1.7144,-1.7166,-1.7211,-1.7257,-1.7326,-1.7355,-1.7392,-1.7396,-1.7404,-1.7406,-1.7407,-1.7406,-1.7376,-1.7401,-1.7401,-1.7401,-1.7401,-1.7401,0,-1.6825,-1.6856,-1.6892,-1.6944,-1.6977,-1.6995,-1.7038,-1.7064,-1.7103,-1.7144,-1.7181,-1.7233,-1.7278,-1.7323,-1.7371,-1.7392,-1.7404,-1.7404,-1.7402,-1.7409,-1.7398,-1.7389,-1.7394,-1.7394,-1.7394,-1.7394,-1.7394,-1.7394,-1.683,-1.687,-1.6894,-1.6951,-1.6983,-1.7027,-1.705,-1.7084,-1.7117,-1.7173,-1.7211,-1.724,-1.7284,-1.7336,-1.7378,-1.7391,-1.7407,-1.7405,-1.742,-1.7409,-1.7409,-1.7409,-1.7401,-1.7408,-1.7408,-1.7427,-1.7428,-1.7428]},{"header":{"parameterUnit":"m.s-1","parameterCategory":1,"la1":30.2991,"la2":30.254,"lo1":-89.0895,"lo2":-89.0444,"dy":0.0017,"dx":0.0017,"nx":28,"ny":28,"refTime":"2023-08-28T21:00:00:Z","depth":0,"parameterNumber":3,"parameterNumberName":"V-component_of_WINDS"},"data":[0,0,0,0,0,0,0,0,0,0,0,0,0,0,0,0,0,0,0,0,0,0,0,0,0,0,0,0,0,0,0,0,0,0,0,0,0,0,0,0,0,0,0,0,0,0,0,0,0,0,0,0,0,0,0,0,0,0,3.9961,3.9961,0,3.9943,3.9943,3.9943,3.9982,3.9983,3.9985,3.9986,3.9959,3.9957,3.9955,0,0,0,0,0,0,0,0,0,0,0,0,0,4.0024,4.0023,3.9961,3.9961,3.9961,3.9943,3.9943,3.9943,3.9982,3.9983,3.9985,3.9987,3.996,3.9957,3.9955,0,0,0,0,0,0,0,0,0,0,0,0,0,4.0,4.0022,3.9962,3.9979,3.998,3.9943,3.9943,3.9943,3.9982,3.9984,3.9985,3.9987,3.996,3.9958,3.9955,3.9898,0,0,3.9946,3.9945,0,0,0,0,0,0,0,0,4.0001,3.9998,3.9976,3.9977,3.9979,3.9967,3.9955,3.9927,3.9981,3.9981,3.9986,3.9988,3.996,3.9957,3.9949,3.9897,3.9896,3.9946,3.9944,3.9943,3.9942,0,0,0,0,0,0,0,4.0003,3.9999,3.9954,3.9976,3.9977,3.9985,3.9984,3.995,3.9959,3.9981,3.9984,3.9981,3.9961,3.9952,3.9949,3.9895,3.9946,3.9943,3.9941,3.994,3.9797,3.9795,0,0,0,0,0,0,4.0004,4.0,3.9955,3.9954,3.9995,3.9983,3.9981,3.9969,3.996,3.996,3.998,3.9983,3.9956,3.9952,3.9948,3.9881,3.9943,3.994,3.9938,3.9799,3.9796,3.9794,0,0,0,0,0,0,4.0005,3.9999,3.9955,3.9978,3.9973,3.9979,3.9965,3.9967,3.9959,3.9959,3.996,3.9969,3.9957,3.9952,3.9911,3.9881,3.9939,3.9936,3.9801,3.9798,3.9795,3.9747,0,0,0,0,0,0,4.0006,3.9999,3.9979,3.9977,3.9971,3.992,3.9963,3.9966,3.9954,3.9959,3.995,3.995,3.9958,3.9915,3.9908,3.9878,3.9934,3.9804,3.98,3.9796,3.9751,3.9742,3.9735,0,0,0,0,0,4.0008,3.9964,3.9978,3.9972,3.9947,3.9919,3.9915,3.9928,3.9952,3.9931,3.9931,3.995,3.9886,3.9911,3.9903,3.9871,3.9806,3.9801,3.9796,3.9754,3.9744,3.9735,0,0,0,0,0,0,3.9959,3.9964,3.9979,3.9933,3.9926,3.9925,3.9899,3.9916,3.9899,3.9904,3.9918,3.9916,3.9872,3.9868,3.9895,3.9816,3.9849,3.9843,3.982,3.981,3.9802,3.9803,3.9931,0,0,0,0,0,3.9944,3.9923,3.9927,3.9886,3.9882,3.9891,3.9879,3.9891,3.9882,3.9878,3.9875,3.9864,3.9842,3.9826,3.9805,3.9752,3.9749,3.9726,3.9718,3.9712,3.9705,3.9676,3.9666,3.9778,3.9778,3.9779,0,0,3.9909,3.991,3.9895,3.9877,3.9872,3.9848,3.9888,3.9861,3.9842,3.9873,3.9835,3.9833,3.9821,3.9774,3.9753,3.9769,3.9674,3.9706,3.97,3.9697,3.967,3.966,3.965,3.9775,3.9776,3.9776,0,0,3.9835,3.9834,3.9801,3.9796,3.979,3.9797,3.9789,3.9786,3.9787,3.975,3.9773,3.9751,3.9711,3.9703,3.9693,3.9619,3.9635,3.9612,3.9568,3.954,3.9531,3.9524,3.9496,3.9486,3.9606,3.9605,3.9605,0,3.9793,3.9761,3.978,3.9752,3.9743,3.9774,3.9738,3.9732,3.9718,3.971,3.973,3.9682,3.9677,3.9628,3.961,3.9602,3.9592,3.9611,3.9532,3.9524,3.9517,3.9491,3.9481,3.9603,3.9603,3.9603,3.9604,0,3.9709,3.9686,3.9659,3.9648,3.9636,3.9604,3.9617,3.9603,3.9616,3.962,3.9582,3.9577,3.9556,3.9546,3.9556,3.9498,3.9509,3.953,3.9563,3.9503,3.9479,3.9469,3.9598,3.96,3.96,3.9601,0,0,3.9599,3.9603,3.9592,3.9588,3.9585,3.9567,3.9537,3.9519,3.9506,3.9496,3.947,3.9438,3.9458,3.9447,3.9458,3.9433,3.9375,3.9458,3.9457,3.9441,3.9309,3.9292,3.928,3.9387,3.9385,3.9384,3.931,0,3.9525,3.9476,3.9494,3.9443,3.9421,3.9452,3.9425,3.9419,3.9423,3.9404,3.9408,3.9385,3.9414,3.9408,3.9385,3.9386,3.9348,3.9392,3.936,3.9359,3.936,3.9268,3.9249,3.918,3.9301,3.9299,3.9298,0,3.9432,3.9422,3.9369,3.9372,3.9363,3.9339,3.9326,3.9308,3.9302,3.9307,3.9296,3.9313,3.9281,3.9317,3.9274,3.9304,3.9292,3.9291,3.9289,3.9284,3.9323,3.9259,3.9158,3.9147,3.9283,3.9284,3.9286,0,3.9356,3.9329,3.9295,3.929,3.9292,3.9275,3.9274,3.9271,3.926,3.9247,3.924,3.9223,3.9213,3.9199,3.921,3.9235,3.9165,3.9201,3.9166,3.9165,3.9147,3.9147,3.9041,3.9143,3.9143,3.9143,3.9143,0,3.927,3.9236,3.9261,3.9239,3.9202,3.9223,3.9185,3.9188,3.9185,3.9163,3.9188,3.9166,3.9183,3.9163,3.9171,3.9134,3.9129,3.9131,3.9133,3.9127,3.9127,3.9118,3.9122,3.914,3.9141,3.9141,3.9142,0,3.9178,3.9193,3.9157,3.9164,3.9165,3.9137,3.9141,3.912,3.9128,3.91,3.9095,3.9105,3.9083,3.9093,3.9069,3.9075,3.9026,3.9035,3.9028,3.903,3.8994,3.8996,3.8875,3.886,3.8974,3.8973,3.8972,0,3.9121,3.9097,3.9101,3.909,3.9089,3.907,3.906,3.908,3.9068,3.9061,3.9041,3.9022,3.9007,3.8969,3.8973,3.8955,3.8963,3.8922,3.896,3.8955,3.896,3.8961,3.8958,3.8913,3.8912,3.8911,3.891,0,3.9018,3.9028,3.9014,3.9003,3.8992,3.8983,3.8976,3.8965,3.8985,3.8971,3.895,3.8939,3.8916,3.8895,3.888,3.8877,3.8896,3.8899,3.8889,3.8882,3.8879,3.8879,3.9006,3.89,3.8901,3.8902,3.8903,3.8903,3.8941,3.8921,3.8922,3.8906,3.8904,3.8898,3.8879,3.8886,3.887,3.8855,3.8868,3.8842,3.8838,3.882,3.8815,3.8795,3.881,3.8797,3.8793,3.8789,3.8784,3.8884,3.8792,3.8792,3.8792,3.8793,3.8793,0,3.8839,3.8842,3.8827,3.8819,3.8806,3.883,3.8824,3.8811,3.879,3.8786,3.8772,3.8748,3.8729,3.8733,3.8716,3.8699,3.8707,3.8693,3.8693,3.8692,3.8771,3.878,3.8687,3.8687,3.8687,3.8687,3.8687,3.8687,3.8784,3.8751,3.8761,3.8727,3.873,3.8708,3.8703,3.8697,3.8694,3.8668,3.8653,3.8658,3.8656,3.864,3.8623,3.8625,3.8616,3.8599,3.8604,3.8676,3.8687,3.8697,3.8705,3.8598,3.8598,3.8527,3.8526,3.8525]}]]